Regional Weather Roundup
Issued by NWS Jackson, KY

Home | Current Version | Previous Version | Graphics & Text | Print | Product List | Glossary On
Versions: 1 2 3 4 5 6 7 8 9 10 11 12 13 14 15 16 17 18 19 20 21 22 23 24 25 26 27 28 29 30 31 32 33 34 35 36 37 38 39 40 41 42 43 44 45 46 47 48 49 50
000
ASUS43 KJKL 300419
RWRJKL

EAST KENTUCKY HOURLY WEATHER ROUNDUP
NATIONAL WEATHER SERVICE JACKSON KY
1200 AM EDT THU OCT 30 2014

NOTE: "FAIR" INDICATES FEW OR NO CLOUDS BELOW 12,000 FEET WITH
NO SIGNIFICANT WEATHER AND/OR OBSTRUCTIONS TO VISIBILITY.

* THESE REPORTS ARE NOT UNDER NWS QUALITY CONTROL AND MAY NOT
  REPORT WEATHER SUCH AS PRECIPITATION AND FOG.

KYZ079-080-083-085-087-088-110-112-115-119-120-300500
...EASTERN KENTUCKY...

CITY           SKY/WX    TMP DP  RH WIND       PRES   REMARKS
JACKSON        CLEAR     50  34  54 N6        30.10S
LONDON         CLEAR     46  39  76 CALM      30.12R
SOMERSET*      CLEAR     45  37  76 CALM      30.14R
MONTICELLO*    CLEAR     38  38 100 CALM      30.15S
WILLIAMSBURG*  CLEAR     39  39 100 CALM      30.12S
MIDDLESBORO*   CLEAR     40  40  98 CALM      30.12S
HARLAN APT*    PTCLDY    41  41 100 E3        30.10F
HAZARD APT*    CLEAR     46  39  76 CALM      30.10S
BLACK MTN*       N/A     39  34  81 N5          N/A
PIKEVILLE APT* CLEAR     48  37  66 W5        30.09S
BIG SANDY*     CLEAR     47  38  69 N10       30.10R
MOREHEAD APT*  MOCLDY    45  36  70 N6        30.14S
ASHLAND*       CLEAR     45  32  61 CALM      30.11S
$$

KYZ035-036-041-042-044-050-067-078-099-300500
...CENTRAL KENTUCKY...

CITY           SKY/WX    TMP DP  RH WIND       PRES   REMARKS
MT STERLING*   CLEAR     45  36  70 NE6       30.14S
FLEMING/MASON* CLEAR     43  34  70 NE5       30.14F
DANVILLE*      CLEAR     43  36  75 N5        30.14S
RICHMOND*      CLEAR     46  36  66 NW3       30.12S
LEXINGTON      CLEAR     46  36  68 N6        30.13S
FRANKFORT      CLEAR     46  35  65 N5        30.13S
$$

KYZ091>093-OHZ055-061-077-WVZ005-015-034-035-042-300500
...SOUTHERN OHIO/WEST VIRGINIA...

CITY           SKY/WX    TMP DP  RH WIND       PRES   REMARKS
COVINGTON      PTCLDY    41  33  73 CALM      30.13S
COLUMBUS       CLOUDY    46  33  60 NW7       30.10S
DAYTON         CLOUDY    45  35  68 NW8       30.13S
WILMINGTON     CLOUDY    44  33  65 W6        30.11S
HUNTINGTON     CLEAR     44  34  67 N8        30.11S
CHARLESTON     CLEAR     48  36  63 NW5       30.10R
PINEVILLE*     CLEAR     40  40 100 MISG      30.12S
BECKLEY        CLEAR     40  35  83 S3        30.06S
BLUEFIELD      CLEAR     47  35  63 W8        30.07F
$$

VAZ002-007-008-TNZ017-027-036-066-071-300500
...SOUTHWEST VIRGINIA/EAST TENNESSEE...

CITY           SKY/WX    TMP DP  RH WIND       PRES   REMARKS
WISE*          CLEAR     45  32  61 W3        30.10S
JONESVILLE*    CLEAR     39  39 100 CALM      30.13S
ABINGDON*      CLEAR     44  43  97 CALM      30.10S
BRISTOL        PTCLDY    41  40  96 CALM      30.10F FOG
KNOXVILLE      PTCLDY    46  43  89 CALM      30.10S
OAK RIDGE      CLEAR     47  44  90 CALM      30.12F
CROSSVILLE     CLEAR     45  38  76 CALM      30.12S
NASHVILLE      CLEAR     49  39  68 CALM      30.14S
$$

...KEY TO REMARKS...
VSB - VISIBILITY IN MILES
WCI - WIND CHILL INDEX
HX  - HEAT INDEX

$$



USA.gov is the U.S. government's official web portal to all federal, state and local government web resources and services.